Location: ??????
(55.6130°N, 37.7882°E)
Time: 09:22:51
(UTC+00:00)

FENGYUN 3A - Visible Passes

Search period start: 24 July 2024 00:00
Search period end: 03 August 2024 00:00
Orbit: 822 x 834 km, 98.6° (Epoch: 23 July)

Date Brightness Start Highest point End Pass type
(mag) Time Alt. Az. Time Alt. Az. Time Alt. Az.
24 Jul 6.2 22:02:03 10° ENE 22:03:23 11° E 22:04:44 10° E visible
24 Jul 4.3 23:39:35 10° NNE 23:44:56 54° E 23:50:14 10° S visible
25 Jul 4.7 23:21:18 10° NNE 23:26:26 40° E 23:31:31 10° SSE visible
26 Jul 5.1 23:03:05 10° NNE 23:07:53 31° E 23:12:39 10° SSE visible
27 Jul 5.5 22:45:00 10° NE 22:49:17 23° E 22:53:33 10° SE visible
28 Jul 3.8 00:24:42 10° NNE 00:30:09 77° WNW 00:35:35 10° SSW visible
28 Jul 5.8 22:27:05 10° NE 22:30:38 17° E 22:34:10 10° SE visible
29 Jul 3.8 00:06:17 10° NNE 00:11:46 82° ESE 00:17:13 10° SSW visible
29 Jul 6.0 22:09:33 10° NE 22:11:56 13° E 22:14:17 10° ESE visible
29 Jul 4.1 23:47:55 10° NNE 23:53:20 62° ESE 23:58:42 10° S visible
30 Jul 4.5 23:29:36 10° NNE 23:34:51 46° E 23:40:04 10° S visible
31 Jul 4.9 23:11:22 10° NNE 23:16:19 35° E 23:21:15 10° SSE visible
01 Aug 5.3 22:53:12 10° NE 22:57:45 26° E 23:02:16 10° SSE visible
02 Aug 3.8 00:33:04 10° NNE 00:38:30 68° WNW 00:43:53 10° SSW visible
02 Aug 5.7 22:35:11 10° NE 22:39:07 20° E 22:43:02 10° SE visible
